Precipitable_Water
0.18 0.20 0.21 0.20 0.21 0.22 0.22 0.20 0.20 0.21 0.21 0.20 0.18 0.19 0.22 0.27 0.33 0.47 0.74 1.08 1.23 1.34 1.38 1.58 1.62 1.50 1.41 1.40 1.37 1.26 1.15 1.10 1.09 0.93 0.87 0.85 0.85 0.81 0.84 0.87 0.81 0.79 0.78
0.18 0.19 0.17 0.17 0.19 0.23 0.24 0.23 0.21 0.21 0.21 0.22 0.21 0.20 0.21 0.25 0.29 0.38 0.60 0.98 1.18 1.27 1.40 1.45 1.59 1.48 1.41 1.38 1.31 1.25 1.11 1.14 1.12 0.91 0.78 0.64 0.72 0.78 0.80 0.79 0.79 0.75 0.76
0.16 0.17 0.17 0.18 0.20 0.24 0.25 0.25 0.24 0.22 0.22 0.23 0.22 0.21 0.22 0.24 0.27 0.33 0.52 0.87 1.14 1.27 1.32 1.41 1.58 1.50 1.44 1.32 1.27 1.24 1.12 1.02 1.09 1.05 0.80 0.65 0.56 0.60 0.73 0.73 0.74 0.73 0.70
0.18 0.19 0.18 0.19 0.21 0.25 0.26 0.27 0.27 0.25 0.23 0.23 0.22 0.20 0.18 0.18 0.24 0.27 0.38 0.63 0.94 1.17 1.28 1.41 1.51 1.55 1.47 1.31 1.27 1.24 1.13 1.06 0.99 0.98 0.93 0.86 0.69 0.48 0.49 0.67 0.70 0.68 0.66
0.19 0.19 0.19 0.21 0.24 0.27 0.27 0.27 0.27 0.27 0.26 0.23 0.22 0.21 0.19 0.19 0.23 0.26 0.34 0.48 0.79 1.08 1.25 1.38 1.43 1.55 1.43 1.37 1.27 1.21 1.15 1.10 1.04 0.92 0.87 0.77 0.66 0.63 0.51 0.44 0.54 0.64 0.67
0.18 0.18 0.20 0.23 0.27 0.29 0.29 0.28 0.27 0.27 0.27 0.26 0.23 0.21 0.20 0.19 0.20 0.24 0.28 0.39 0.59 0.93 1.20 1.33 1.38 1.52 1.45 1.33 1.25 1.24 1.18 1.11 1.07 1.01 0.87 0.74 0.52 0.54 0.50 0.44 0.51 0.52 0.59
0.16 0.18 0.22 0.25 0.26 0.26 0.28 0.28 0.27 0.27 0.27 0.26 0.25 0.22 0.21 0.21 0.20 0.22 0.25 0.33 0.49 0.79 1.09 1.28 1.33 1.45 1.46 1.36 1.24 1.25 1.21 1.18 1.13 0.97 0.86 0.78 0.63 0.61 0.56 0.51 0.48 0.48 0.55
0.18 0.25 0.26 0.26 0.26 0.26 0.26 0.25 0.26 0.25 0.26 0.26 0.26 0.25 0.22 0.21 0.20 0.21 0.25 0.31 0.41 0.68 1.05 1.24 1.34 1.44 1.43 1.40 1.27 1.29 1.24 1.23 1.12 0.99 0.89 0.81 0.65 0.63 0.54 0.49 0.45 0.43 0.47
0.24 0.26 0.26 0.27 0.27 0.29 0.28 0.27 0.26 0.25 0.25 0.26 0.26 0.25 0.24 0.21 0.20 0.21 0.25 0.29 0.36 0.56 0.91 1.17 1.27 1.40 1.40 1.38 1.30 1.30 1.24 1.21 1.09 0.99 0.91 0.84 0.73 0.64 0.58 0.57 0.52 0.43 0.38
0.25 0.26 0.27 0.28 0.29 0.31 0.31 0.31 0.29 0.26 0.26 0.27 0.26 0.27 0.26 0.24 0.22 0.21 0.23 0.26 0.31 0.51 0.81 1.09 1.24 1.36 1.35 1.36 1.32 1.32 1.28 1.17 1.10 0.96 0.85 0.85 0.79 0.68 0.60 0.57 0.58 0.55 0.41
0.26 0.26 0.27 0.29 0.30 0.29 0.30 0.31 0.30 0.28 0.27 0.29 0.28 0.26 0.26 0.26 0.22 0.21 0.22 0.25 0.31 0.45 0.71 0.99 1.18 1.31 1.31 1.34 1.31 1.33 1.29 1.17 1.09 0.95 0.82 0.81 0.79 0.66 0.57 0.57 0.57 0.50 0.46
0.26 0.27 0.29 0.29 0.29 0.30 0.28 0.27 0.28 0.27 0.28 0.28 0.26 0.25 0.25 0.26 0.23 0.21 0.21 0.24 0.29 0.44 0.68 0.92 1.14 1.28 1.30 1.30 1.33 1.30 1.29 1.19 1.08 0.93 0.83 0.79 0.78 0.65 0.57 0.55 0.48 0.47 0.47
0.26 0.29 0.30 0.31 0.30 0.28 0.26 0.26 0.27 0.29 0.29 0.28 0.28 0.26 0.24 0.25 0.23 0.21 0.22 0.24 0.29 0.43 0.65 0.88 1.06 1.23 1.28 1.30 1.32 1.31 1.27 1.29 1.10 0.93 0.82 0.77 0.75 0.63 0.56 0.52 0.46 0.45 0.45
0.27 0.29 0.30 0.30 0.29 0.27 0.26 0.25 0.26 0.29 0.30 0.28 0.28 0.26 0.25 0.25 0.25 0.22 0.22 0.24 0.28 0.36 0.63 0.85 1.03 1.20 1.25 1.30 1.31 1.27 1.25 1.27 1.14 0.94 0.88 0.79 0.73 0.64 0.54 0.47 0.43 0.42 0.37
0.28 0.29 0.28 0.29 0.29 0.27 0.26 0.25 0.26 0.27 0.30 0.29 0.29 0.27 0.25 0.26 0.26 0.22 0.23 0.24 0.27 0.40 0.61 0.81 0.96 1.15 1.19 1.25 1.27 1.25 1.24 1.28 1.18 0.95 0.90 0.81 0.74 0.71 0.59 0.45 0.41 0.39 0.35
0.28 0.29 0.29 0.29 0.27 0.26 0.24 0.25 0.27 0.28 0.30 0.29 0.30 0.30 0.26 0.25 0.26 0.22 0.23 0.25 0.27 0.40 0.61 0.82 0.94 1.08 1.16 1.23 1.24 1.26 1.23 1.28 1.19 0.98 0.89 0.83 0.75 0.72 0.65 0.52 0.43 0.38 0.32
0.29 0.28 0.28 0.28 0.26 0.25 0.26 0.25 0.27 0.30 0.30 0.31 0.32 0.30 0.26 0.26 0.25 0.23 0.24 0.24 0.26 0.40 0.60 0.79 0.92 1.05 1.16 1.18 1.23 1.27 1.25 1.26 1.21 1.04 0.93 0.84 0.75 0.70 0.66 0.58 0.47 0.39 0.34
0.29 0.28 0.28 0.27 0.25 0.27 0.27 0.28 0.30 0.33 0.32 0.32 0.31 0.30 0.25 0.26 0.25 0.23 0.24 0.25 0.28 0.45 0.60 0.74 0.87 1.03 1.12 1.21 1.24 1.25 1.26 1.21 1.24 1.16 1.00 0.90 0.78 0.70 0.66 0.61 0.49 0.40 0.37
0.31 0.31 0.30 0.29 0.26 0.28 0.29 0.29 0.31 0.36 0.35 0.32 0.32 0.30 0.27 0.26 0.23 0.23 0.24 0.26 0.31 0.48 0.65 0.76 0.86 0.98 1.09 1.15 1.18 1.22 1.21 1.17 1.19 1.18 1.05 0.98 0.84 0.74 0.70 0.64 0.55 0.45 0.40
0.33 0.32 0.31 0.31 0.28 0.29 0.31 0.32 0.31 0.35 0.33 0.31 0.31 0.31 0.30 0.27 0.24 0.25 0.26 0.27 0.43 0.53 0.68 0.76 0.88 1.03 1.06 1.11 1.22 1.21 1.18 1.14 1.15 1.15 1.05 1.03 0.90 0.79 0.76 0.67 0.65 0.50 0.38
0.34 0.35 0.34 0.31 0.28 0.31 0.33 0.31 0.29 0.31 0.34 0.32 0.32 0.32 0.31 0.29 0.26 0.30 0.30 0.31 0.45 0.65 0.68 0.79 0.92 1.04 1.07 1.12 1.16 1.16 1.18 1.14 1.10 1.12 1.02 1.03 0.94 0.85 0.80 0.72 0.72 0.58 0.45
0.35 0.36 0.35 0.34 0.31 0.31 0.32 0.33 0.30 0.35 0.36 0.33 0.33 0.32 0.33 0.31 0.34 0.32 0.31 0.36 0.54 0.65 0.71 0.77 0.91 1.01 1.07 1.16 1.17 1.19 1.21 1.20 1.12 1.07 1.11 1.07 0.98 0.86 0.81 0.77 0.77 0.63 0.48
0.36 0.38 0.36 0.36 0.37 0.30 0.33 0.33 0.35 0.38 0.34 0.33 0.35 0.33 0.32 0.34 0.33 0.31 0.33 0.41 0.62 0.61 0.73 0.80 0.89 0.98 1.05 1.12 1.17 1.18 1.16 1.18 1.16 1.15 1.12 1.06 1.04 0.91 0.86 0.79 0.81 0.68 0.51
0.37 0.40 0.39 0.38 0.36 0.35 0.29 0.34 0.40 0.39 0.33 0.33 0.34 0.30 0.32 0.31 0.31 0.30 0.30 0.47 0.63 0.69 0.75 0.83 0.90 0.94 1.00 1.06 1.12 1.16 1.15 1.16 1.15 1.13 1.09 1.14 1.07 0.95 0.89 0.81 0.83 0.72 0.62
0.35 0.41 0.41 0.40 0.39 0.37 0.35 0.33 0.37 0.41 0.37 0.33 0.30 0.29 0.30 0.28 0.28 0.36 0.36 0.57 0.65 0.74 0.77 0.88 0.92 0.94 0.96 1.02 1.13 1.16 1.15 1.16 1.13 1.13 1.06 1.10 1.04 0.88 0.85 0.85 0.86 0.79 0.69
0.30 0.40 0.45 0.45 0.45 0.41 0.39 0.38 0.39 0.37 0.37 0.33 0.31 0.30 0.29 0.27 0.27 0.33 0.29 0.53 0.63 0.78 0.91 0.96 1.01 1.05 1.09 1.13 1.16 1.18 1.19 1.19 1.18 1.10 1.03 1.04 1.04 0.91 0.87 0.88 0.89 0.82 0.74
Wind_Speed
17 19 22 27 28 27 25 27 27 28 31 36 38 42 47 49 49 48 47 50 42 39 34 45 54 51 50 47 46 43 40 36 34 31 27 25 25 24 23 23 22 20 18
18 20 25 29 30 28 27 26 28 29 31 34 39 42 46 49 50 50 50 52 49 39 40 37 52 55 53 50 49 46 42 39 37 33 30 26 24 24 24 23 22 20 19
20 24 29 33 32 30 29 27 25 30 32 35 38 42 45 49 50 50 50 48 47 45 39 39 46 55 55 52 50 48 46 41 37 38 31 27 25 25 24 24 23 21 20
25 28 33 36 35 32 30 29 27 27 32 36 39 43 46 49 52 52 52 52 50 47 39 44 40 60 57 54 51 49 46 44 40 37 34 28 30 28 25 25 24 23 21
30 34 38 40 37 35 33 32 30 29 30 37 41 44 47 50 52 53 53 51 51 49 42 45 41 54 58 55 53 51 48 45 43 38 34 30 30 29 28 26 25 23 22
35 40 42 42 40 39 37 35 34 33 31 34 40 45 49 51 53 54 54 54 51 51 44 47 46 45 59 57 54 52 49 46 43 39 36 33 31 30 30 27 27 25 22
41 42 42 41 41 39 39 37 37 36 35 35 40 46 50 53 55 57 57 55 53 54 48 44 47 43 58 58 55 52 50 48 45 40 37 33 32 32 31 30 27 25 23
43 44 43 43 42 40 37 37 37 37 38 38 41 45 51 55 56 58 60 58 56 55 51 48 50 44 56 59 56 53 50 49 45 42 38 34 33 33 31 31 29 25 23
45 44 45 45 44 43 42 39 38 39 39 41 42 47 50 57 59 59 61 61 59 57 54 46 47 49 51 58 57 53 51 49 46 43 40 36 34 33 32 32 31 27 23
45 46 47 47 47 47 46 42 42 41 39 41 43 47 51 56 60 61 63 63 61 59 58 51 45 50 51 57 56 53 51 49 46 44 41 38 35 34 32 32 31 29 24
48 49 49 49 49 49 45 42 41 41 39 39 42 48 53 56 61 63 65 65 63 62 61 59 48 48 51 56 56 53 52 49 47 45 41 39 37 35 33 32 31 29 26
50 50 51 51 50 45 43 41 40 38 37 38 40 46 52 57 62 65 66 66 65 64 62 59 52 49 53 56 56 55 53 50 48 45 42 39 38 36 34 32 31 30 28
51 53 53 51 49 45 42 39 34 31 34 35 38 43 49 56 62 65 66 68 66 65 65 61 57 53 52 56 55 55 53 51 49 46 43 40 38 37 35 33 31 31 28
53 55 55 53 49 45 41 34 29 28 31 34 37 42 47 55 62 65 67 69 67 67 66 63 59 53 54 55 54 54 53 50 49 47 44 41 39 38 36 35 32 31 29
56 57 57 52 47 43 37 32 28 27 30 33 36 42 46 53 61 66 68 69 69 69 66 62 61 52 59 54 53 55 53 49 50 48 45 42 39 39 37 36 34 32 30
59 60 58 51 45 42 35 29 24 23 27 34 37 42 45 53 61 65 68 69 70 69 68 64 60 54 57 56 55 56 54 50 50 49 46 43 40 38 38 36 36 34 31
61 62 56 48 45 39 33 28 23 21 24 31 36 41 44 52 60 65 68 69 69 69 69 65 59 54 56 55 56 55 53 50 48 49 46 43 41 39 38 36 36 35 33
61 59 53 47 43 37 32 28 21 16 20 28 35 40 43 51 58 64 67 67 68 69 68 65 61 54 56 55 56 54 53 52 49 49 47 44 42 40 39 37 36 35 34
58 56 51 47 42 37 31 25 17 10 17 25 34 39 42 50 57 63 66 66 67 68 66 64 60 55 58 57 53 53 53 51 51 49 48 45 43 42 40 38 36 35 34
57 56 52 46 40 37 30 22 12 6 16 24 32 38 41 49 57 61 64 64 66 66 64 60 59 55 56 56 54 52 51 51 50 48 47 47 44 43 42 39 37 35 34
57 56 50 46 41 37 27 19 10 6 14 24 30 35 40 50 56 59 62 63 65 64 63 59 56 56 54 53 53 53 53 52 50 48 47 46 45 44 42 40 37 36 35
56 56 52 47 44 36 28 17 8 8 14 20 27 35 44 52 53 57 59 62 62 61 60 58 54 53 51 51 50 50 52 53 50 48 47 46 45 43 42 40 37 36 36
53 54 52 48 42 38 30 19 10 10 16 22 30 38 44 47 51 54 57 60 58 60 58 54 53 51 49 48 47 49 51 53 51 47 46 45 45 44 42 41 39 38 37
51 53 52 47 44 39 31 21 15 15 19 23 29 36 40 44 48 51 56 58 55 58 56 53 51 47 46 44 45 48 50 54 50 48 45 45 46 45 43 41 40 38 36
47 49 50 45 45 39 33 24 16 12 16 22 28 34 37 42 44 47 53 56 54 54 53 51 49 46 44 41 40 44 48 53 52 48 45 43 45 44 43 41 40 38 36
42 44 46 45 41 38 34 27 21 15 16 23 28 32 35 39 42 43 47 51 51 51 52 49 45 42 41 39 40 40 45 53 54 48 46 45 44 45 44 42 41 39 38
Wind_Direction
303 311 315 319 317 311 307 282 271 262 248 240 234 229 225 223 222 220 218 218 218 213 212 201 198 200 198 197 194 191 188 188 187 184 182 183 185 185 186 186 185 184 183
305 308 317 321 317 311 305 300 272 263 252 242 235 230 226 223 222 221 220 215 213 213 209 208 204 198 196 196 195 192 190 191 191 190 187 189 190 190 191 190 190 189 188
309 311 315 318 315 309 305 298 289 265 254 244 238 231 226 223 220 219 216 216 213 211 212 208 197 199 198 197 195 194 193 193 195 193 196 193 198 193 195 194 195 195 195
310 312 315 316 314 308 302 296 290 277 257 246 238 232 227 223 221 219 218 216 215 214 212 205 208 201 198 198 197 196 197 196 196 199 200 204 198 199 199 199 200 200 200
315 315 313 313 310 305 300 293 286 281 265 248 239 233 228 224 221 219 217 216 214 213 216 207 201 198 198 201 198 196 198 199 200 202 202 203 200 201 201 200 201 201 203
317 315 314 312 307 303 297 290 284 277 269 253 241 234 229 224 221 217 216 214 215 212 211 210 206 205 201 199 197 198 199 199 201 203 203 203 203 204 202 203 202 202 203
318 316 316 315 312 306 297 289 282 275 267 257 243 235 229 224 221 218 216 214 213 210 210 208 206 203 200 199 197 198 199 201 202 203 203 205 204 204 204 202 202 203 205
319 316 315 314 313 307 302 291 283 276 265 258 245 235 229 224 221 218 216 213 212 211 210 210 206 204 199 197 196 199 199 201 202 202 204 204 205 204 205 205 202 203 209
320 317 315 313 311 307 298 291 286 276 267 254 245 235 229 224 220 217 214 213 211 210 208 206 205 203 198 196 196 198 199 201 202 203 204 204 205 206 207 205 206 208 212
321 319 317 315 311 306 300 288 282 277 265 251 243 234 228 223 218 216 213 211 209 207 206 204 204 201 199 197 197 198 199 200 202 203 203 205 206 206 207 207 208 212 214
323 322 320 317 314 311 301 291 283 272 262 249 239 233 225 221 217 214 211 209 208 206 205 205 205 201 199 196 198 199 199 201 201 203 204 205 206 207 208 209 210 212 212
325 323 321 319 317 313 307 296 286 269 255 247 239 228 221 217 214 211 209 206 205 204 203 203 203 200 197 197 199 199 200 201 201 203 203 205 206 207 207 208 210 210 213
327 326 324 322 319 315 309 300 287 265 249 241 232 222 218 213 211 208 206 205 204 203 202 203 202 199 198 198 200 200 201 202 202 203 204 205 206 207 208 209 210 210 213
330 329 327 324 321 318 313 303 287 265 247 237 228 220 215 210 208 206 204 203 202 201 201 202 201 202 198 197 201 201 201 203 203 204 205 206 207 208 209 210 211 210 212
334 333 330 328 325 322 317 306 289 264 244 232 224 216 212 207 205 204 202 201 200 199 199 199 200 202 199 199 200 200 201 203 203 204 205 207 208 209 210 210 210 210 214
336 335 333 330 328 326 320 313 294 271 244 227 219 212 208 205 201 201 199 199 199 198 198 198 199 201 199 200 202 201 202 202 203 203 206 207 208 210 210 211 212 214 215
338 338 336 334 332 330 323 316 299 275 240 218 212 206 203 200 198 197 197 197 197 197 197 198 199 200 198 198 198 199 200 201 202 203 205 207 210 211 211 212 213 216 219
341 342 342 338 336 333 328 321 306 275 224 210 204 199 196 195 194 194 194 195 195 195 195 196 198 199 197 195 197 200 202 204 206 206 207 208 209 212 212 213 215 218 222
346 345 344 343 342 339 334 327 314 262 206 198 193 192 192 192 191 191 192 192 193 193 193 195 196 199 198 198 200 201 201 204 205 207 208 209 210 212 213 215 217 220 224
350 351 350 350 346 345 341 336 327 211 191 189 188 190 190 189 187 188 189 190 190 191 192 195 196 198 197 198 200 200 202 202 203 207 208 210 212 212 215 217 219 222 224
353 354 355 354 353 352 350 349 338 195 185 185 187 189 189 185 183 185 186 188 188 190 191 193 195 194 195 197 200 203 204 205 206 208 208 211 213 214 216 219 221 224 224
357 359 358 358 359 357 358 353 353 181 176 181 182 181 178 178 181 181 184 185 186 188 190 190 192 193 195 197 201 203 202 203 205 208 211 212 213 215 217 219 222 222 223
358 1 2 2 5 8 10 13 31 144 158 162 165 167 171 175 177 179 181 183 184 185 187 190 190 191 195 198 201 204 204 206 205 209 210 212 214 215 217 219 220 221 223
0 4 5 9 13 14 20 32 59 120 142 154 161 165 169 172 175 178 180 181 183 185 187 189 189 192 195 199 204 205 207 205 208 209 211 213 214 216 218 219 220 223 225
2 6 9 13 17 22 29 40 58 98 137 153 160 164 168 171 173 175 179 182 184 185 186 189 191 193 198 201 203 205 206 205 205 206 208 211 212 215 218 220 222 225 227
0 5 10 14 20 27 35 42 55 83 125 144 156 162 166 170 172 175 180 183 186 188 188 189 191 196 201 203 206 206 206 206 206 209 211 213 215 217 220 222 224 226 228